N2WPO Weather Reports


time (UTC)temp
C
wind
direction
speed
KPH
gust
KPH
rain 1hr
cm
rain 24hr
cm
rain mn
cm
humidity
%
barometer
mb
20260505063620 8 248 0.0 0.0 0.00 0.00 0.00 88 1007.0
20260505063120 8 180 0.0 0.0 0.00 0.00 0.00 88 1007.0
20260505062620 8 203 0.0 0.0 0.00 0.00 0.00 87 1007.0
20260505062120 9 203 0.0 0.0 0.00 0.00 0.00 87 1007.0
20260505061620 9 270 0.0 1.6 0.00 0.00 0.00 87 1007.0
20260505061120 9 225 0.0 0.0 0.00 0.00 0.00 87 1007.0
20260505060621 9 203 1.6 4.8 0.00 0.00 0.00 86 1007.0
20260505060120 9 180 0.0 0.0 0.00 0.00 0.00 86 1007.0
20260505055621 9 203 0.0 0.0 0.00 0.00 0.00 86 1007.0
20260505055120 9 270 0.0 0.0 0.00 0.00 0.00 85 1007.0
20260505054621 9 315 1.6 3.2 0.00 0.00 0.00 85 1007.0
20260505054120 9 45 0.0 1.6 0.00 0.00 0.00 85 1007.0
20260505053620 9 45 0.0 0.0 0.00 0.00 0.00 84 1007.0
20260505053120 10 90 1.6 3.2 0.00 0.00 0.00 84 1007.0
20260505052620 9 113 6.4 9.7 0.00 0.00 0.00 84 1007.0
20260505052119 10 248 0.0 0.0 0.00 0.00 0.00 83 1007.0
20260505051620 10 203 0.0 1.6 0.00 0.00 0.00 83 1007.0
20260505051120 10 293 0.0 0.0 0.00 0.00 0.00 82 1006.0
20260505050621 10 248 0.0 0.0 0.00 0.00 0.00 82 1007.0
20260505050121 10 338 0.0 0.0 0.00 0.00 0.00 81 1007.0
20260505041620 10 270 0.0 0.0 0.00 0.00 0.00 79 1007.0
20260505041122 10 270 0.0 0.0 0.00 0.00 0.00 78 1007.0
20260505040620 10 113 1.6 1.6 0.00 0.00 0.00 78 1007.0
20260505040120 10 45 0.0 1.6 0.00 0.00 0.00 78 1007.0
20260505035620 10 270 0.0 0.0 0.00 0.00 0.00 77 1007.0
20260505035120 10 248 4.8 6.4 0.00 0.00 0.00 77 1007.0
20260505034620 10 270 0.0 0.0 0.00 0.00 0.00 77 1007.0
20260505034121 10 315 0.0 0.0 0.00 0.00 0.00 76 1007.0
20260505033620 10 338 0.0 0.0 0.00 0.00 0.00 76 1007.0
20260505033121 10 270 0.0 0.0 0.00 0.00 0.00 76 1007.0
20260505032620 11 113 3.2 4.8 0.00 0.00 0.00 75 1007.0
20260505032120 11 23 1.6 3.2 0.00 0.00 0.00 75 1007.0
20260505031620 11 0 0.0 1.6 0.00 0.00 0.00 74 1007.0
20260505031120 11 270 4.8 4.8 0.00 0.00 0.00 74 1007.0
20260505030620 11 68 0.0 0.0 0.00 0.00 0.00 73 1007.0
20260505030120 11 270 0.0 0.0 0.00 0.00 0.00 73 1007.0
20260505025620 11 203 3.2 4.8 0.00 0.00 0.00 73 1007.0
20260505025120 11 293 0.0 1.6 0.00 0.00 0.00 72 1007.0
20260505024621 11 68 3.2 4.8 0.00 0.00 0.00 72 1007.0
20260505024120 11 135 0.0 0.0 0.00 0.00 0.00 71 1007.0
20260505023620 11 248 0.0 0.0 0.00 0.00 0.00 71 1007.0
20260505023120 11 225 0.0 1.6 0.00 0.00 0.00 70 1007.0
20260505022620 11 135 0.0 0.0 0.00 0.00 0.00 69 1007.0
20260505022121 11 293 0.0 1.6 0.00 0.00 0.00 68 1007.0
20260505021620 11 315 3.2 4.8 0.00 0.00 0.00 68 1007.0
20260505021120 11 248 0.0 1.6 0.00 0.00 0.00 68 1007.0
20260505020621 11 293 1.6 3.2 0.00 0.00 0.00 67 1007.0
20260505020120 12 248 0.0 1.6 0.00 0.00 0.00 66 1007.0
20260505015620 12 293 0.0 1.6 0.00 0.00 0.00 65 1007.0
20260505015120 12 0 0.0 1.6 0.00 0.00 0.00 64 1007.0
20260505014621 12 90 0.0 0.0 0.00 0.00 0.00 63 1007.0
20260505014121 12 68 0.0 0.0 0.00 0.00 0.00 63 1007.0
20260505013620 12 203 1.6 4.8 0.00 0.00 0.00 62 1007.0
20260505013120 12 180 0.0 1.6 0.00 0.00 0.00 62 1007.0
20260505012621 12 113 3.2 4.8 0.00 0.00 0.00 60 1007.0
20260505012121 12 180 3.2 4.8 0.00 0.00 0.00 60 1006.0
20260505011620 12 225 1.6 4.8 0.00 0.00 0.00 59 1007.0
20260505011121 12 293 0.0 0.0 0.00 0.00 0.00 59 1006.0
20260505010620 12 135 0.0 0.0 0.00 0.00 0.00 58 1006.0
20260505010120 13 180 1.6 4.8 0.00 0.00 0.00 57 1006.0
20260505005620 13 203 4.8 6.4 0.00 0.00 0.00 57 1006.0
20260505005120 13 90 0.0 1.6 0.00 0.00 0.00 57 1006.0
20260505004620 13 270 1.6 4.8 0.00 0.00 0.00 56 1006.0
20260505004120 13 225 1.6 3.2 0.00 0.00 0.00 57 1006.0
20260505003620 13 90 1.6 3.2 0.00 0.00 0.00 55 1006.0
20260505003120 13 270 1.6 3.2 0.00 0.00 0.00 55 1005.0
20260505002622 13 90 4.8 8.0 0.00 0.00 0.00 54 1005.0
20260505002120 13 68 0.0 1.6 0.00 0.00 0.00 53 1005.0
20260505001643 14 248 0.0 1.6 0.00 0.00 0.00 53 1005.0
20260505001120 13 90 3.2 4.8 0.00 0.00 0.00 53 1005.0
20260505000620 13 23 1.6 3.2 0.00 0.00 0.00 54 1005.0
20260505000121 14 225 0.0 0.0 0.00 0.00 0.00 53 1005.0
20260504235620 14 270 9.7 11.3 0.00 0.00 0.00 52 1005.0
20260504235120 14 113 0.0 3.2 0.00 0.00 0.00 53 1005.0
20260504234621 14 68 1.6 3.2 0.00 0.00 0.00 51 1005.0
20260504234120 15 45 1.6 3.2 0.00 0.00 0.00 51 1005.0
20260504233620 15 68 3.2 4.8 0.00 0.00 0.00 50 1005.0
20260504233121 15 135 0.0 3.2 0.00 0.00 0.00 49 1005.0
20260504232620 15 0 3.2 4.8 0.00 0.00 0.00 48 1004.0
20260504232121 16 270 3.2 8.0 0.00 0.00 0.00 47 1004.0
20260504231620 16 113 4.8 4.8 0.00 0.00 0.00 46 1004.0
20260504231120 16 315 0.0 1.6 0.00 0.00 0.00 46 1004.0
20260504230629 16 315 3.2 9.7 0.00 0.00 0.00 45 1004.0
20260504230120 17 0 4.8 6.4 0.00 0.00 0.00 44 1004.0
20260504225620 17 270 0.0 1.6 0.00 0.00 0.00 43 1004.0
20260504225120 17 270 0.0 1.6 0.00 0.00 0.00 43 1004.0
20260504224620 17 248 4.8 8.0 0.00 0.00 0.00 43 1004.0
20260504224120 17 113 6.4 6.4 0.00 0.00 0.00 42 1004.0
20260504223621 17 113 4.8 8.0 0.00 0.00 0.00 42 1004.0
20260504223120 18 248 3.2 4.8 0.00 0.00 0.00 41 1004.0
20260504222620 18 90 8.0 9.7 0.00 0.00 0.00 41 1003.0
20260504222120 18 90 1.6 3.2 0.00 0.00 0.00 40 1003.0
20260504221620 18 68 8.0 11.3 0.00 0.00 0.00 41 1004.0
20260504221120 18 203 4.8 6.4 0.00 0.00 0.00 40 1003.0
20260504220620 18 293 4.8 8.0 0.00 0.00 0.00 37 1003.0
20260504220120 18 158 0.0 1.6 0.00 0.00 0.00 39 1003.0
20260504215622 18 0 4.8 4.8 0.00 0.00 0.00 39 1004.0
20260504215120 19 270 9.7 11.3 0.00 0.00 0.00 38 1003.0
20260504214621 19 203 3.2 4.8 0.00 0.00 0.00 37 1003.0
20260504214120 19 225 6.4 8.0 0.00 0.00 0.00 36 1004.0
20260504213620 20 315 3.2 4.8 0.00 0.00 0.00 36 1004.0
20260504213121 20 293 3.2 4.8 0.00 0.00 0.00 36 1003.0
20260504212620 20 135 6.4 9.7 0.00 0.00 0.00 36 1003.0
20260504212120 20 270 3.2 8.0 0.00 0.00 0.00 34 1003.0
20260504211620 20 225 3.2 4.8 0.00 0.00 0.00 36 1003.0
20260504211121 20 180 4.8 4.8 0.00 0.00 0.00 35 1003.0
20260504210620 20 203 4.8 11.3 0.00 0.00 0.00 34 1003.0
20260504210120 21 180 6.4 8.0 0.00 0.00 0.00 33 1003.0
20260504205620 21 68 3.2 4.8 0.00 0.00 0.00 32 1003.0
20260504205121 21 158 1.6 4.8 0.00 0.00 0.00 31 1003.0
20260504204620 21 68 4.8 6.4 0.00 0.00 0.00 31 1003.0
20260504204122 21 113 6.4 8.0 0.00 0.00 0.00 32 1003.0
20260504203622 21 113 9.7 11.3 0.00 0.00 0.00 30 1003.0
20260504203120 21 45 8.0 11.3 0.00 0.00 0.00 29 1003.0
20260504202621 21 45 1.6 4.8 0.00 0.00 0.00 30 1003.0
20260504202120 21 158 1.6 3.2 0.00 0.00 0.00 29 1003.0
20260504201620 22 203 3.2 6.4 0.00 0.00 0.00 30 1003.0
20260504201120 22 68 6.4 9.7 0.00 0.00 0.00 27 1003.0
20260504200620 22 113 3.2 4.8 0.00 0.00 0.00 28 1003.0
20260504200120 21 248 4.8 9.7 0.00 0.00 0.00 28 1003.0
20260504195620 22 225 6.4 11.3 0.00 0.00 0.00 28 1003.0
20260504195121 22 158 4.8 6.4 0.00 0.00 0.00 27 1003.0
20260504194620 22 293 8.0 11.3 0.00 0.00 0.00 26 1003.0
20260504194120 22 293 9.7 14.5 0.00 0.00 0.00 29 1003.0
20260504193621 22 293 4.8 4.8 0.00 0.00 0.00 29 1003.0
20260504193120 22 180 1.6 3.2 0.00 0.00 0.00 28 1003.0
20260504192620 22 23 0.0 1.6 0.00 0.00 0.00 27 1003.0
20260504192120 22 203 8.0 11.3 0.00 0.00 0.00 29 1003.0
20260504191621 22 45 4.8 8.0 0.00 0.00 0.00 30 1003.0
20260504191121 22 225 11.3 25.7 0.00 0.00 0.00 26 1003.0
20260504190620 22 68 4.8 6.4 0.00 0.00 0.00 30 1003.0
20260504190120 22 203 4.8 6.4 0.00 0.00 0.00 28 1003.0
20260504185622 22 293 4.8 8.0 0.00 0.00 0.00 28 1003.0
20260504185121 22 90 4.8 9.7 0.00 0.00 0.00 27 1003.0
20260504184621 22 180 3.2 6.4 0.00 0.00 0.00 29 1003.0
20260504184120 22 180 11.3 14.5 0.00 0.00 0.00 30 1004.0
20260504183620 22 158 3.2 4.8 0.00 0.00 0.00 29 1004.0
20260504183120 22 248 4.8 8.0 0.00 0.00 0.00 30 1004.0
20260504182623 21 90 4.8 4.8 0.00 0.00 0.00 29 1004.0
20260504182120 21 270 6.4 9.7 0.00 0.00 0.00 31 1004.0
20260504181620 22 68 1.6 3.2 0.00 0.00 0.00 28 1004.0
20260504181120 22 225 4.8 6.4 0.00 0.00 0.00 28 1004.0
20260504180620 22 180 11.3 11.3 0.00 0.00 0.00 29 1004.0
20260504180120 21 135 8.0 11.3 0.00 0.00 0.00 29 1004.0
20260504175620 22 113 1.6 6.4 0.00 0.00 0.00 30 1004.0
20260504175121 21 315 4.8 4.8 0.00 0.00 0.00 28 1004.0
20260504174621 21 90 3.2 4.8 0.00 0.00 0.00 30 1004.0
20260504174120 21 180 8.0 11.3 0.00 0.00 0.00 29 1004.0
20260504173620 21 158 4.8 6.4 0.00 0.00 0.00 30 1004.0
20260504173123 21 135 3.2 4.8 0.00 0.00 0.00 31 1023.0
20260504172621 21 90 6.4 8.0 0.00 0.00 0.00 27 1023.0
20260504172120 21 68 8.0 12.9 0.00 0.00 0.00 31 1023.0
20260504171620 21 135 3.2 4.8 0.00 0.00 0.00 31 1023.0
20260504171122 21 135 12.9 16.1 0.00 0.00 0.00 28 1023.0
20260504170620 20 113 3.2 4.8 0.00 0.00 0.00 28 1023.0
20260504170120 20 113 4.8 4.8 0.00 0.00 0.00 29 1023.0
20260504160120 19 248 4.8 4.8 0.00 0.00 0.00 31 1024.0
20260504151120 18 180 8.0 11.3 0.00 0.00 0.00 35 1025.0
20260504150620 18 270 8.0 11.3 0.00 0.00 0.00 34 1025.0
20260504150120 19 158 9.7 11.3 0.00 0.00 0.00 33 1025.0
20260504141120 18 68 3.2 4.8 0.00 0.00 0.00 34 1025.0
20260504140620 17 113 6.4 8.0 0.00 0.00 0.00 36 1025.0
20260504140121 17 90 4.8 9.7 0.00 0.00 0.00 37 1025.0
20260504130620 15 45 4.8 6.4 0.00 0.00 0.00 41 1026.0
20260504130121 14 113 8.0 9.7 0.00 0.00 0.00 42 1026.0
20260504120120 12 113 1.6 4.8 0.00 0.00 0.00 45 1026.0
20260504110620 6 270 0.0 0.0 0.00 0.00 0.00 63 1026.0
20260504110120 6 338 0.0 0.0 0.00 0.00 0.00 63 1026.0
20260504100121 6 270 0.0 0.0 0.00 0.00 0.00 63 1026.0
20260504090120 6 315 0.0 0.0 0.00 0.00 0.00 63 1026.0
20260504081620 6 315 0.0 0.0 0.00 0.00 0.00 63 1026.0
20260504081120 6 225 0.0 0.0 0.00 0.00 0.00 59 1026.0
20260504080620 6 270 0.0 0.0 0.00 0.00 0.00 62 1026.0
20260504080120 6 270 0.0 0.0 0.00 0.00 0.00 63 1026.0
20260504070120 6 315 0.0 0.0 0.00 0.00 0.00 63 1026.0